Time,TemperatureF,DewpointF,PressureIn,WindDirection,WindDirectionDegrees,WindSpeedMPH,WindSpeedGustMPH,Humidity,HourlyPrecipIn,Conditions,Clouds,dailyrainin,SoftwareType,DateUTC
2013-06-26 00:05:00,64.0,63.1,29.73,WNW,292,0.0,-999.0,97,-99.99,,,0.00,Acu-Link.com,2013-06-26 04:05:00,
2013-06-26 00:20:00,63.7,62.8,29.71,NE,45,0.0,-999.0,97,-99.99,,,0.00,Acu-Link.com,2013-06-26 04:20:00,
2013-06-26 00:35:00,63.0,62.1,29.73,SE,135,0.0,-999.0,97,-99.99,,,0.00,Acu-Link.com,2013-06-26 04:35:00,
2013-06-26 00:50:00,62.6,62.0,29.72,NNE,22,0.0,-999.0,98,-99.99,,,0.00,Acu-Link.com,2013-06-26 04:50:00,
2013-06-26 01:06:00,61.9,61.3,29.72,NE,45,0.0,-999.0,98,-99.99,,,0.00,Acu-Link.com,2013-06-26 05:06:00,
2013-06-26 01:21:00,61.3,60.7,29.72,ENE,67,0.0,-999.0,98,-99.99,,,0.00,Acu-Link.com,2013-06-26 05:21:00,
2013-06-26 01:36:00,60.6,60.0,29.73,NNE,22,0.0,-999.0,98,-99.99,,,0.00,Acu-Link.com,2013-06-26 05:36:00,
2013-06-26 01:51:00,60.3,59.7,29.72,NNE,22,0.0,-999.0,98,-99.99,,,0.00,Acu-Link.com,2013-06-26 05:51:00,
2013-06-26 02:06:00,59.9,59.3,29.72,NE,45,0.0,-999.0,98,-99.99,,,0.00,Acu-Link.com,2013-06-26 06:06:00,
2013-06-26 02:22:00,59.7,59.4,29.72,NNW,337,0.0,-999.0,99,-99.99,,,0.00,Acu-Link.com,2013-06-26 06:22:00,
2013-06-26 02:37:00,61.0,60.7,29.72,NE,45,0.0,-999.0,99,-99.99,,,0.00,Acu-Link.com,2013-06-26 06:37:00,
2013-06-26 02:52:00,61.0,60.7,29.73,NW,315,0.0,-999.0,99,-99.99,,,0.00,Acu-Link.com,2013-06-26 06:52:00,
2013-06-26 03:07:00,61.2,60.9,29.73,WSW,247,0.0,-999.0,99,-99.99,,,0.00,Acu-Link.com,2013-06-26 07:07:00,
2013-06-26 03:22:00,61.2,60.9,29.71,ESE,112,1.7,-999.0,99,-99.99,,,0.00,Acu-Link.com,2013-06-26 07:22:00,
2013-06-26 03:38:00,61.3,61.0,29.72,NW,315,1.7,-999.0,99,-99.99,,,0.00,Acu-Link.com,2013-06-26 07:38:00,
2013-06-26 03:53:00,61.3,61.0,29.72,NE,45,0.0,-999.0,99,-99.99,,,0.00,Acu-Link.com,2013-06-26 07:53:00,
2013-06-26 04:08:00,61.2,60.9,29.72,NW,315,0.0,-999.0,99,-99.99,,,0.00,Acu-Link.com,2013-06-26 08:08:00,
2013-06-26 04:23:00,61.2,60.9,29.72,NNW,337,0.0,-999.0,99,-99.99,,,0.00,Acu-Link.com,2013-06-26 08:23:00,
2013-06-26 04:39:00,61.0,60.7,29.73,ENE,67,0.0,-999.0,99,-99.99,,,0.00,Acu-Link.com,2013-06-26 08:39:00,
2013-06-26 04:54:00,61.0,60.7,29.73,NE,45,0.0,-999.0,99,-99.99,,,0.00,Acu-Link.com,2013-06-26 08:54:00,
2013-06-26 05:09:00,61.2,60.9,29.71,SSW,202,0.0,-999.0,99,-99.99,,,0.00,Acu-Link.com,2013-06-26 09:09:00,
2013-06-26 05:24:00,61.5,61.2,29.73,NNW,337,0.0,-999.0,99,-99.99,,,0.00,Acu-Link.com,2013-06-26 09:24:00,
2013-06-26 05:39:00,61.7,61.4,29.72,NNE,22,0.0,-999.0,99,-99.99,,,0.00,Acu-Link.com,2013-06-26 09:39:00,
2013-06-26 05:54:00,62.1,61.8,29.74,NNE,22,0.0,-999.0,99,-99.99,,,0.00,Acu-Link.com,2013-06-26 09:54:00,
2013-06-26 06:09:00,63.0,62.7,29.73,WNW,292,0.0,-999.0,99,-99.99,,,0.00,Acu-Link.com,2013-06-26 10:09:00,
2013-06-26 06:24:00,63.7,63.4,29.73,ESE,112,1.7,-999.0,99,-99.99,,,0.00,Acu-Link.com,2013-06-26 10:24:00,
2013-06-26 06:40:00,64.2,63.9,29.73,ENE,67,0.0,-999.0,99,-99.99,,,0.00,Acu-Link.com,2013-06-26 10:40:00,
2013-06-26 06:55:00,64.9,64.6,29.72,NW,315,0.0,-999.0,99,-99.99,,,0.00,Acu-Link.com,2013-06-26 10:55:00,
2013-06-26 07:10:00,65.8,64.9,29.73,East,90,0.0,-999.0,97,-99.99,,,0.00,Acu-Link.com,2013-06-26 11:10:00,
2013-06-26 07:25:00,66.4,65.2,29.73,SE,135,2.2,-999.0,96,-99.99,,,0.00,Acu-Link.com,2013-06-26 11:25:00,
2013-06-26 07:40:00,66.9,65.1,29.74,SW,225,1.7,-999.0,94,-99.99,,,0.00,Acu-Link.com,2013-06-26 11:40:00,
2013-06-26 07:56:00,66.9,65.1,29.74,SW,225,0.0,-999.0,94,-99.99,,,0.00,Acu-Link.com,2013-06-26 11:56:00,
2013-06-26 08:11:00,66.9,65.1,29.74,West,270,1.1,-999.0,94,-99.99,,,0.00,Acu-Link.com,2013-06-26 12:11:00,
2013-06-26 08:26:00,67.1,65.3,29.76,WSW,247,0.0,-999.0,94,-99.99,,,0.00,Acu-Link.com,2013-06-26 12:26:00,
2013-06-26 08:41:00,67.8,65.4,29.75,East,90,0.0,-999.0,92,-99.99,,,0.00,Acu-Link.com,2013-06-26 12:41:00,
2013-06-26 08:56:00,69.8,66.1,29.76,West,270,0.0,-999.0,88,-99.99,,,0.00,Acu-Link.com,2013-06-26 12:56:00,
2013-06-26 09:27:00,70.0,66.3,29.75,WSW,247,2.2,-999.0,88,-99.99,,,0.00,Acu-Link.com,2013-06-26 13:27:00,
2013-06-26 09:42:00,70.9,66.5,29.74,East,90,1.1,-999.0,86,-99.99,,,0.00,Acu-Link.com,2013-06-26 13:42:00,
2013-06-26 09:57:00,72.9,67.1,29.75,West,270,2.7,-999.0,82,-99.99,,,0.00,Acu-Link.com,2013-06-26 13:57:00,
2013-06-26 10:13:00,72.1,67.0,29.74,NNE,22,0.0,-999.0,84,-99.99,,,0.00,Acu-Link.com,2013-06-26 14:13:00,
2013-06-26 10:28:00,73.2,67.7,29.74,SW,225,0.0,-999.0,83,-99.99,,,0.00,Acu-Link.com,2013-06-26 14:28:00,
2013-06-26 10:43:00,71.2,66.5,29.74,West,270,2.7,-999.0,85,-99.99,,,0.00,Acu-Link.com,2013-06-26 14:43:00,
2013-06-26 10:58:00,70.9,66.5,29.75,WNW,292,0.0,-999.0,86,-99.99,,,0.00,Acu-Link.com,2013-06-26 14:58:00,
2013-06-26 11:14:00,72.1,66.6,29.73,SW,225,2.7,-999.0,83,-99.99,,,0.00,Acu-Link.com,2013-06-26 15:14:00,
2013-06-26 11:29:00,72.5,67.0,29.73,SSW,202,4.2,-999.0,83,-99.99,,,0.00,Acu-Link.com,2013-06-26 15:29:00,
2013-06-26 11:44:00,73.4,67.2,29.73,West,270,4.2,-999.0,81,-99.99,,,0.00,Acu-Link.com,2013-06-26 15:44:00,
2013-06-26 11:59:00,72.3,66.8,29.74,WSW,247,4.2,-999.0,83,-99.99,,,0.00,Acu-Link.com,2013-06-26 15:59:00,
2013-06-26 12:14:00,72.0,66.2,29.74,West,270,5.8,-999.0,82,-99.99,,,0.00,Acu-Link.com,2013-06-26 16:14:00,
2013-06-26 12:30:00,71.6,66.5,29.74,SW,225,5.3,-999.0,84,-99.99,,,0.00,Acu-Link.com,2013-06-26 16:30:00,
2013-06-26 12:45:00,72.0,66.5,29.72,West,270,5.3,-999.0,83,-99.99,,,0.00,Acu-Link.com,2013-06-26 16:45:00,
2013-06-26 13:00:00,71.6,66.2,29.73,WSW,247,6.3,-999.0,83,-99.99,,,0.00,Acu-Link.com,2013-06-26 17:00:00,
2013-06-26 13:15:00,71.6,66.2,29.73,SW,225,5.8,-999.0,83,-99.99,,,0.00,Acu-Link.com,2013-06-26 17:15:00,
2013-06-26 13:31:00,71.6,65.8,29.73,WSW,247,5.8,-999.0,82,-99.99,,,0.00,Acu-Link.com,2013-06-26 17:31:00,
2013-06-26 13:46:00,71.6,65.8,29.73,WSW,247,8.3,-999.0,82,-99.99,,,0.00,Acu-Link.com,2013-06-26 17:46:00,
2013-06-26 14:01:00,71.4,66.0,29.74,WSW,247,7.3,-999.0,83,-99.99,,,0.00,Acu-Link.com,2013-06-26 18:01:00,
2013-06-26 14:16:00,72.0,66.5,29.74,WSW,247,6.8,-999.0,83,-99.99,,,0.00,Acu-Link.com,2013-06-26 18:16:00,
2013-06-26 14:31:00,71.4,66.6,29.74,WSW,247,8.3,-999.0,85,-99.99,,,0.00,Acu-Link.com,2013-06-26 18:31:00,
2013-06-26 14:48:00,72.0,66.2,29.74,WSW,247,4.2,-999.0,82,-99.99,,,0.00,Acu-Link.com,2013-06-26 18:48:00,
2013-06-26 15:03:00,72.1,66.3,29.74,West,270,2.7,-999.0,82,-99.99,,,0.00,Acu-Link.com,2013-06-26 19:03:00,
2013-06-26 15:18:00,72.1,66.3,29.74,SW,225,2.2,-999.0,82,-99.99,,,0.00,Acu-Link.com,2013-06-26 19:18:00,
2013-06-26 15:33:00,72.5,65.6,29.74,SW,225,3.7,-999.0,79,-99.99,,,0.00,Acu-Link.com,2013-06-26 19:33:00,
2013-06-26 15:48:00,71.8,65.6,29.74,SW,225,4.7,-999.0,81,-99.99,,,0.00,Acu-Link.com,2013-06-26 19:48:00,
2013-06-26 16:04:00,71.4,66.0,29.75,WSW,247,3.2,-999.0,83,-99.99,,,0.00,Acu-Link.com,2013-06-26 20:04:00,
2013-06-26 16:26:00,70.9,66.8,29.74,West,270,0.0,-999.0,87,-99.99,,,0.01,Acu-Link.com,2013-06-26 20:26:00,
2013-06-26 16:42:00,70.7,66.6,29.74,SW,225,2.2,-999.0,87,-99.99,,,0.02,Acu-Link.com,2013-06-26 20:42:00,
2013-06-26 16:57:00,70.0,65.9,29.75,WSW,247,8.3,-999.0,87,-99.99,,,0.03,Acu-Link.com,2013-06-26 20:57:00,
2013-06-26 17:12:00,69.6,66.2,29.75,West,270,3.2,-999.0,89,-99.99,,,0.03,Acu-Link.com,2013-06-26 21:12:00,
2013-06-26 17:27:00,71.6,66.8,29.74,ESE,112,3.2,-999.0,85,-99.99,,,0.05,Acu-Link.com,2013-06-26 21:27:00,
2013-06-26 17:42:00,72.1,66.6,29.74,East,90,0.0,-999.0,83,-99.99,,,0.05,Acu-Link.com,2013-06-26 21:42:00,
2013-06-26 17:58:00,73.0,66.8,29.74,SE,135,4.2,-999.0,81,-99.99,,,0.05,Acu-Link.com,2013-06-26 21:58:00,
2013-06-26 18:13:00,69.3,63.9,29.75,ESE,112,3.7,-999.0,83,-99.99,,,0.05,Acu-Link.com,2013-06-26 22:13:00,
2013-06-26 18:28:00,68.9,64.2,29.75,East,90,3.2,-999.0,85,-99.99,,,0.05,Acu-Link.com,2013-06-26 22:28:00,
2013-06-26 18:45:00,68.4,64.0,29.77,SSE,157,1.7,-999.0,86,-99.99,,,0.05,Acu-Link.com,2013-06-26 22:45:00,
2013-06-26 19:01:00,68.5,64.1,29.75,ENE,67,5.3,-999.0,86,-99.99,,,0.05,Acu-Link.com,2013-06-26 23:01:00,
2013-06-26 19:19:00,67.5,63.5,29.76,SE,135,4.7,-999.0,87,-99.99,,,0.05,Acu-Link.com,2013-06-26 23:19:00,
2013-06-26 19:35:00,66.0,62.7,29.75,SE,135,3.7,-999.0,89,-99.99,,,0.05,Acu-Link.com,2013-06-26 23:35:00,
2013-06-26 19:50:00,65.3,62.6,29.77,ENE,67,2.7,-999.0,91,-99.99,,,0.05,Acu-Link.com,2013-06-26 23:50:00,
2013-06-26 20:05:00,65.1,62.7,29.77,ESE,112,2.7,-999.0,92,-99.99,,,0.05,Acu-Link.com,2013-06-27 00:05:00,
2013-06-26 20:20:00,64.8,62.7,29.76,ESE,112,3.2,-999.0,93,-99.99,,,0.05,Acu-Link.com,2013-06-27 00:20:00,
2013-06-26 20:36:00,64.8,62.7,29.76,ESE,112,3.7,-999.0,93,-99.99,,,0.05,Acu-Link.com,2013-06-27 00:36:00,
2013-06-26 20:51:00,64.8,63.3,29.76,ESE,112,2.2,-999.0,95,-99.99,,,0.05,Acu-Link.com,2013-06-27 00:51:00,